Location: Lecco
(45.8566°N, 9.3977°E)
Time: 02:59:40
(UTC+02:00)

Transit 4A - Pass Details

Date: 23 August 2020
Orbit: 863 x 982 km, 66.8° (Epoch: 23 September)

Event Time Altitude Azimuth Distance (km) Brightness Sun altitude
Rises 16:39:49 0° 325° (NW) 3,668 11.1 36.1°
Reaches altitude 10° 16:42:23 10° 322° (NW) 2,727 10.6 35.7°
Maximum altitude 16:48:42 65° 242° (WSW) 1,073 9.5 34.7°
Drops below altitude 10° 16:55:01 10° 163° (SSE) 2,723 10.5 33.7°
Sets 16:57:35 0° 160° (SSE) 3,662 11.0 33.2°
